{"data":{"norad_id":65637,"intl_designator":"2025-210R","name":"STARLINK-35147","alt_names":[],"object_type":"PAYLOAD","status":"ACTIVE","operator":null,"country":"US","launch_date":"2025-09-18","launch_site_code":"AFETR","launch_vehicle":null,"mission":null,"orbit_class":"UNKNOWN","rcs_meters":null,"size_class":null,"mass_kg":null,"dimensions":null,"purposes":["comms"],"wikipedia_slug":null,"has_3d_model":false,"image_url":null,"decayed_at":null,"tle_current":{"epoch":"2026-09-20T07:52:56.113536Z","epoch_age_seconds":123557,"freshness":"FRESH","line1":"1 65637U 25210R   26263.32842724  .00015294  00000+0  46280-3 0  9991","line2":"2 65637  53.1587 118.5748 0001077  48.9855 311.1241 15.34404103 57590","mean_motion":15.34404103,"eccentricity":0.0001077,"inclination_deg":53.1587,"raan_deg":118.5748,"arg_perigee_deg":48.9855,"mean_anomaly_deg":311.1241,"bstar":0.0004628,"rev_number":5759,"period_min":93.84750713222,"perigee_km":461.95428807314,"apogee_km":463.42780243409,"semimajor_km":6840.8280452536,"source":"CELESTRAK","updated_at":"2026-09-21T09:00:35.675676Z"}}}